FW4655 Weather Reports


Display with metric or nautical units.
time (UTC)temp
F
wind
direction
speed
MPH
gust
MPH
rain 1hr
in
rain 24hr
in
rain mn
in
humidity
%
barometer
mb
20260506204528 65 257 2.0 4.0 0.00 0.00 0.00 67 1021.8
20260506204010 65 157 0.0 3.0 0.00 0.00 0.00 67 1021.8
20260506203518 65 220 0.0 7.0 0.00 0.00 0.00 67 1021.8
20260506203029 65 297 1.0 7.0 0.00 0.00 0.00 68 1021.7
20260506202507 65 228 1.0 4.0 0.00 0.00 0.00 68 1021.7
20260506202012 65 54 1.0 4.0 0.00 0.00 0.00 68 1021.7
20260506201532 65 211 0.0 4.0 0.00 0.00 0.00 69 1021.8
20260506201008 64 293 0.0 4.0 0.00 0.00 0.00 69 1021.8
20260506200508 64 262 0.0 4.0 0.00 0.00 0.00 69 1021.8
20260506200013 63 226 0.0 4.0 0.00 0.00 0.00 70 1021.9
20260506195507 63 310 1.0 4.0 0.00 0.00 0.00 70 1022.1
20260506195010 62 311 1.0 3.0 0.00 0.00 0.00 72 1022.2
20260506194518 62 290 0.0 4.0 0.00 0.00 0.00 72 1022.2
20260506194009 62 25 1.0 4.0 0.00 0.00 0.00 72 1022.2
20260506193509 62 340 0.0 4.0 0.00 0.00 0.00 72 1022.3
20260506193023 62 3 2.0 4.0 0.00 0.00 0.00 72 1022.4
20260506192509 62 294 1.0 4.0 0.00 0.00 0.00 72 1022.3
20260506192011 62 309 1.0 4.0 0.00 0.00 0.00 73 1022.1
20260506191527 62 288 0.0 4.0 0.00 0.00 0.00 73 1022.1
20260506191007 62 313 1.0 4.0 0.00 0.00 0.00 73 1022.1
20260506190509 62 300 1.0 3.0 0.00 0.00 0.00 73 1022.2
20260506190028 61 269 0.0 3.0 0.00 0.00 0.00 74 1022.2
20260506185509 61 321 1.0 3.0 0.00 0.00 0.00 73 1022.2
20260506185005 61 97 2.0 3.0 0.00 0.00 0.00 73 1022.0
20260506184516 61 91 1.0 3.0 0.00 0.00 0.00 75 1022.0
20260506184008 61 298 1.0 3.0 0.00 0.00 0.00 75 1022.1
20260506183508 61 340 2.0 3.0 0.00 0.00 0.00 75 1022.0
20260506183018 61 39 1.0 3.0 0.00 0.00 0.00 74 1022.1
20260506182508 60 245 0.0 0.0 0.00 0.00 0.00 76 1022.2
20260506182010 60 49 0.0 4.0 0.00 0.00 0.00 76 1022.2
20260506181526 60 341 1.0 6.0 0.00 0.00 0.00 77 1022.1
20260506181008 60 359 2.0 6.0 0.00 0.00 0.00 77 1022.1
20260506180510 59 34 1.0 4.0 0.00 0.00 0.00 77 1022.2
20260506180028 60 359 1.0 4.0 0.00 0.00 0.00 76 1022.2
20260506175509 59 311 0.0 0.0 0.00 0.00 0.00 76 1022.2
20260506175010 59 67 0.0 0.0 0.00 0.00 0.00 77 1022.1
20260506174528 59 336 0.0 0.0 0.00 0.00 0.00 76 1022.2
20260506174013 59 349 0.0 0.0 0.00 0.00 0.00 76 1022.1
20260506173510 59 222 0.0 0.0 0.00 0.00 0.00 77 1022.0
20260506173018 59 235 0.0 0.0 0.00 0.00 0.00 77 1021.9
20260506172506 59 229 0.0 2.0 0.00 0.00 0.00 77 1021.9
20260506172008 59 242 0.0 3.0 0.00 0.00 0.00 77 1021.8
20260506171534 59 27 1.0 3.0 0.00 0.00 0.00 77 1021.7
20260506171010 59 259 0.0 3.0 0.00 0.00 0.00 77 1021.8
20260506170510 59 328 2.0 5.0 0.00 0.00 0.00 76 1021.9
20260506170025 59 308 2.0 5.0 0.00 0.00 0.00 77 1021.9
20260506165508 58 30 0.0 3.0 0.00 0.00 0.00 77 1021.9
20260506165010 58 345 0.0 4.0 0.00 0.00 0.00 77 1021.8
20260506164526 58 34 2.0 4.0 0.00 0.00 0.00 77 1021.7
20260506164013 59 60 0.0 4.0 0.00 0.00 0.00 77 1021.7
20260506163513 59 57 2.0 4.0 0.00 0.00 0.00 77 1021.9
20260506163030 58 103 0.0 4.0 0.00 0.00 0.00 78 1021.7
20260506162508 58 59 3.0 4.0 0.00 0.00 0.00 77 1021.7
20260506162012 58 56 2.0 4.0 0.00 0.00 0.00 77 1021.6
20260506161537 58 82 0.0 3.0 0.00 0.00 0.00 78 1021.6
20260506161007 58 79 1.0 3.0 0.00 0.00 0.00 78 1021.7
20260506160513 57 125 0.0 4.0 0.00 0.00 0.00 78 1021.5
20260506160034 57 124 0.0 4.0 0.00 0.00 0.00 78 1021.4
20260506155510 57 72 0.0 5.0 0.00 0.00 0.00 78 1021.4
20260506155011 57 258 1.0 5.0 0.00 0.00 0.00 79 1021.1
20260506154530 56 302 0.0 3.0 0.00 0.00 0.00 80 1021.1
20260506154012 56 250 0.0 0.0 0.00 0.00 0.00 80 1021.1
20260506153514 56 59 0.0 3.0 0.00 0.00 0.00 80 1021.7
20260506153024 56 96 0.0 3.0 0.00 0.00 0.00 80 1021.9
20260506152508 56 49 1.0 5.0 0.00 0.00 0.00 80 1021.9
20260506152015 56 54 1.0 5.0 0.00 0.00 0.00 80 1022.0
20260506151534 56 103 2.0 6.0 0.00 0.00 0.00 80 1022.0
20260506151015 56 84 2.0 6.0 0.00 0.00 0.00 80 1021.9
20260506150516 56 101 2.0 6.0 0.00 0.00 0.00 80 1022.0
20260506150032 56 86 3.0 6.0 0.00 0.00 0.00 80 1021.9
20260506145504 56 99 1.0 4.0 0.00 0.00 0.00 80 1021.9
20260506145005 56 55 0.0 4.0 0.00 0.00 0.00 80 1021.6
20260506144506 56 46 1.0 6.0 0.00 0.00 0.00 80 1021.8
20260506144009 57 57 2.0 6.0 0.00 0.00 0.00 80 1021.7
20260506143505 57 97 3.0 6.0 0.00 0.00 0.00 80 1021.5
20260506143030 57 75 1.0 3.0 0.00 0.00 0.00 81 1021.4
20260506142503 57 96 2.0 3.0 0.00 0.00 0.00 81 1021.2
20260506142007 57 89 2.0 3.0 0.00 0.00 0.00 81 1021.1
20260506141510 57 115 0.0 2.0 0.00 0.00 0.00 81 1020.9
20260506141007 57 54 0.0 2.0 0.00 0.00 0.00 81 1021.0
20260506140505 57 102 0.0 2.0 0.00 0.00 0.00 81 1021.1
20260506140015 57 90 0.0 0.0 0.00 0.00 0.00 81 1021.1
20260506135507 57 78 0.0 0.0 0.00 0.00 0.00 81 1021.1
20260506135007 56 96 0.0 0.0 0.00 0.00 0.00 81 1020.9
20260506134520 56 96 0.0 0.0 0.00 0.00 0.00 81 1020.9
20260506134003 56 95 0.0 0.0 0.00 0.00 0.00 81 1020.8
20260506133503 56 95 0.0 0.0 0.00 0.00 0.00 81 1020.7
20260506133006 56 146 0.0 0.0 0.00 0.00 0.00 81 1020.7
20260506132504 56 146 0.0 0.0 0.00 0.00 0.00 81 1020.7
20260506132008 56 147 0.0 0.0 0.00 0.00 0.00 81 1020.6
20260506131514 56 146 0.0 0.0 0.00 0.00 0.00 81 1020.5
20260506131006 56 146 0.0 0.0 0.00 0.00 0.00 81 1020.5
20260506130505 56 146 0.0 0.0 0.00 0.00 0.00 81 1020.5
20260506130012 56 146 0.0 0.0 0.00 0.00 0.00 81 1020.5
20260506125504 56 146 0.0 0.0 0.00 0.00 0.00 81 1020.4
20260506125008 56 146 0.0 0.0 0.00 0.00 0.00 81 1020.3
20260506124516 56 148 0.0 0.0 0.00 0.00 0.00 81 1020.3
20260506124008 56 148 0.0 2.0 0.00 0.00 0.00 81 1020.3
20260506123507 56 105 0.0 2.0 0.00 0.00 0.00 81 1020.3
20260506123024 56 94 1.0 4.0 0.00 0.00 0.00 81 1020.4
20260506122508 56 99 1.0 4.0 0.00 0.00 0.00 81 1020.4
20260506122006 56 66 0.0 4.0 0.00 0.00 0.00 81 1020.4
20260506121507 56 103 0.0 3.0 0.00 0.00 0.00 81 1020.4
20260506121003 56 94 0.0 3.0 0.00 0.00 0.00 80 1020.4
20260506120505 56 89 0.0 3.0 0.00 0.00 0.00 80 1020.3
20260506120011 56 77 1.0 4.0 0.00 0.00 0.00 80 1020.4
20260506115508 56 95 1.0 4.0 0.00 0.00 0.00 80 1020.2
20260506115007 56 80 1.0 4.0 0.00 0.00 0.00 80 1020.2
20260506114520 56 96 1.0 5.0 0.00 0.00 0.00 80 1020.1
20260506114008 56 115 1.0 5.0 0.00 0.00 0.00 80 1020.0
20260506113509 57 76 1.0 4.0 0.00 0.00 0.00 80 1020.0
20260506113020 57 55 1.0 6.0 0.00 0.00 0.00 80 1020.0
20260506112508 57 143 1.0 6.0 0.00 0.00 0.00 79 1020.0
20260506112011 57 73 2.0 5.0 0.00 0.00 0.00 79 1020.0
20260506111522 57 91 3.0 5.0 0.00 0.00 0.00 79 1019.9
20260506111010 57 51 2.0 4.0 0.00 0.00 0.00 79 1019.8
20260506110515 57 86 0.0 3.0 0.00 0.00 0.00 79 1019.7
20260506110007 57 91 0.0 4.0 0.00 0.00 0.00 79 1019.6
20260506105504 57 58 1.0 5.0 0.00 0.00 0.00 79 1019.6
20260506105007 57 86 2.0 5.0 0.00 0.00 0.00 79 1019.5
20260506104513 57 96 1.0 2.0 0.00 0.00 0.00 79 1019.4
20260506104007 57 112 1.0 3.0 0.00 0.00 0.00 79 1019.3
20260506103507 57 44 1.0 3.0 0.00 0.00 0.00 79 1019.2
20260506103017 57 55 0.0 3.0 0.00 0.00 0.00 79 1019.2
20260506102507 57 81 0.0 3.0 0.00 0.00 0.00 79 1019.1
20260506102008 57 45 0.0 3.0 0.00 0.00 0.00 79 1019.0
20260506101535 57 92 0.0 3.0 0.00 0.00 0.00 78 1018.9
20260506101015 57 100 2.0 3.0 0.00 0.00 0.00 78 1018.9
20260506100511 57 73 0.0 3.0 0.00 0.00 0.00 78 1018.9
20260506100023 57 94 1.0 4.0 0.00 0.00 0.00 78 1018.9
20260506095508 57 76 1.0 4.0 0.00 0.00 0.00 78 1018.9
20260506095011 58 44 1.0 3.0 0.00 0.00 0.00 78 1018.9
20260506094526 58 56 0.0 2.0 0.00 0.00 0.00 78 1018.9
20260506094007 58 36 0.0 2.0 0.00 0.00 0.00 78 1018.8
20260506093512 58 44 0.0 4.0 0.00 0.00 0.00 78 1018.8
20260506093014 58 101 2.0 4.0 0.00 0.00 0.00 78 1018.7
20260506092508 58 71 0.0 0.0 0.00 0.00 0.00 78 1018.8
20260506092010 58 84 0.0 0.0 0.00 0.00 0.00 78 1018.8
20260506091521 58 91 0.0 0.0 0.00 0.00 0.00 78 1018.7
20260506091010 58 89 0.0 0.0 0.00 0.00 0.00 77 1018.7
20260506090510 58 82 0.0 0.0 0.00 0.00 0.00 78 1018.6
20260506090021 58 94 0.0 1.0 0.00 0.00 0.00 77 1018.6
20260506085509 58 75 0.0 5.0 0.00 0.00 0.00 77 1018.6
20260506085011 58 98 0.0 5.0 0.00 0.00 0.00 77 1018.6
20260506084528 59 126 1.0 5.0 0.00 0.00 0.00 77 1018.6
20260506084009 59 84 3.0 5.0 0.00 0.00 0.00 77 1018.6
20260506083511 59 99 1.0 4.0 0.00 0.00 0.00 77 1018.6
20260506083024 59 77 1.0 3.0 0.00 0.00 0.00 77 1018.7
20260506082509 59 96 1.0 4.0 0.00 0.00 0.00 77 1018.7
20260506082006 59 91 1.0 4.0 0.00 0.00 0.00 77 1018.7
20260506081516 59 72 0.0 0.0 0.00 0.00 0.00 77 1018.7
20260506081009 59 81 0.0 0.0 0.00 0.00 0.00 77 1018.6
20260506080511 59 82 0.0 3.0 0.00 0.00 0.00 77 1018.5
20260506073510 59 79 0.0 2.0 0.00 0.00 0.00 80 1018.2
20260506073025 59 105 0.0 1.0 0.00 0.00 0.00 81 1018.2
20260506072517 59 105 0.0 1.0 0.00 0.00 0.00 81 1018.2
20260506072015 59 104 0.0 0.0 0.00 0.00 0.00 81 1018.2
20260506071527 59 105 0.0 0.0 0.00 0.00 0.00 81 1018.2
20260506071010 59 104 0.0 1.0 0.00 0.00 0.00 81 1018.2
20260506070509 59 104 0.0 1.0 0.00 0.00 0.00 81 1018.1
20260506062516 58 105 0.0 1.0 0.00 0.00 0.00 81 1017.9
20260506062010 58 108 0.0 0.0 0.00 0.00 0.00 82 1017.8
20260506061528 58 108 0.0 0.0 0.00 0.00 0.00 82 1017.8
20260506061016 58 108 0.0 0.0 0.00 0.00 0.00 81 1017.8
20260506060508 58 108 0.0 1.0 0.00 0.00 0.00 81 1017.8
20260506051004 57 244 0.0 0.0 0.00 0.00 0.00 83 1017.5
20260506050506 57 244 0.0 0.0 0.00 0.00 0.00 83 1017.5
20260506045005 56 244 0.0 0.0 0.00 0.00 0.00 83 1017.6
20260506044520 56 244 0.0 0.0 0.00 0.00 0.00 83 1017.6
20260506044013 57 244 0.0 0.0 0.00 0.00 0.00 82 1017.6
20260506043507 57 244 0.0 0.0 0.00 0.00 0.00 82 1017.4
20260506043020 57 244 0.0 0.0 0.00 0.00 0.00 82 1017.4
20260506042507 57 244 0.0 0.0 0.00 0.00 0.00 80 1017.3
20260506042017 57 244 0.0 0.0 0.00 0.00 0.00 79 1017.3
20260506041530 58 244 0.0 0.0 0.00 0.00 0.00 78 1017.2
20260506041009 58 244 0.0 0.0 0.00 0.00 0.00 78 1017.1
20260506040520 59 244 0.0 0.0 0.00 0.00 0.00 77 1017.1
20260506040009 59 244 0.0 0.0 0.00 0.00 0.00 77 1017.0
20260506035504 60 244 0.0 0.0 0.00 0.00 0.00 76 1016.8
20260506035004 60 244 0.0 0.0 0.00 0.00 0.00 75 1016.8
20260506034512 61 244 0.0 0.0 0.00 0.00 0.00 73 1016.7
20260506034007 61 244 0.0 0.0 0.00 0.00 0.00 72 1016.7
20260506033506 62 244 0.0 0.0 0.00 0.00 0.00 71 1016.6
20260506033021 62 244 0.0 0.0 0.00 0.00 0.00 70 1016.6
20260506032508 62 244 0.0 0.0 0.00 0.00 0.00 69 1016.5
20260506032010 63 244 0.0 0.0 0.00 0.00 0.00 69 1016.5
20260506031524 63 244 0.0 0.0 0.00 0.00 0.00 68 1016.5
20260506031009 63 244 0.0 0.0 0.00 0.00 0.00 68 1016.4
20260506030513 63 244 0.0 0.0 0.00 0.00 0.00 67 1016.4
20260506030026 64 243 0.0 1.0 0.00 0.00 0.00 68 1016.4
20260506025514 64 243 0.0 2.0 0.00 0.00 0.00 68 1016.4
20260506025009 64 217 0.0 2.0 0.00 0.00 0.00 68 1016.3
20260506024526 64 226 1.0 2.0 0.00 0.00 0.00 68 1016.2
20260506024005 64 214 0.0 2.0 0.00 0.00 0.00 68 1016.2
20260506023506 64 160 0.0 0.0 0.00 0.00 0.00 67 1016.3
20260506023014 64 233 0.0 0.0 0.00 0.00 0.00 67 1016.3
20260506022508 64 46 0.0 0.0 0.00 0.00 0.00 65 1016.2
20260506022007 64 46 0.0 0.0 0.00 0.00 0.00 66 1016.4
20260506021518 65 210 0.0 0.0 0.00 0.00 0.00 65 1016.3
20260506021011 65 211 0.0 0.0 0.00 0.00 0.00 65 1016.3
20260506020513 65 285 0.0 0.0 0.00 0.00 0.00 65 1016.3
20260506020024 65 295 0.0 0.0 0.00 0.00 0.00 64 1016.3
20260506015508 66 218 0.0 0.0 0.00 0.00 0.00 63 1016.3
20260506015010 66 275 0.0 0.0 0.00 0.00 0.00 63 1016.3
20260506014537 65 274 0.0 1.0 0.00 0.00 0.00 65 1016.3
20260506014011 65 302 0.0 3.0 0.00 0.00 0.00 64 1016.4
20260506013512 65 39 0.0 4.0 0.00 0.00 0.00 64 1016.4
20260506013030 66 339 2.0 4.0 0.00 0.00 0.00 64 1016.3
20260506012509 66 299 0.0 2.0 0.00 0.00 0.00 64 1016.4
20260506012008 65 1 0.0 3.0 0.00 0.00 0.00 66 1016.3
20260506011514 64 79 1.0 3.0 0.00 0.00 0.00 66 1016.3
20260506011006 64 59 1.0 3.0 0.00 0.00 0.00 66 1016.4
20260506010508 64 70 0.0 2.0 0.00 0.00 0.00 66 1016.3
20260506010025 64 93 0.0 2.0 0.00 0.00 0.00 67 1016.3
20260506005509 64 59 1.0 3.0 0.00 0.00 0.00 67 1016.3
20260506005015 64 87 1.0 3.0 0.00 0.00 0.00 67 1016.4
20260506004535 64 106 0.0 4.0 0.00 0.00 0.00 66 1016.5
20260506004013 64 94 1.0 4.0 0.00 0.00 0.00 67 1016.4
20260506003513 64 51 2.0 4.0 0.00 0.00 0.00 67 1016.5
20260506003024 64 320 0.0 2.0 0.00 0.00 0.00 68 1016.4
20260506002512 64 351 0.0 2.0 0.00 0.00 0.00 68 1016.4
20260506002013 63 326 0.0 3.0 0.00 0.00 0.00 67 1016.5
20260506001528 63 342 2.0 3.0 0.00 0.00 0.00 67 1016.6
20260506001010 64 38 1.0 3.0 0.00 0.00 0.00 67 1016.5
20260506000510 63 93 0.0 3.0 0.00 0.00 0.00 67 1016.6
20260506000019 63 96 2.0 4.0 0.00 0.00 0.00 67 1016.6
20260505235514 63 51 2.0 4.0 0.00 0.00 0.00 67 1016.7
20260505235010 63 328 0.0 4.0 0.00 0.00 0.00 67 1016.7
20260505234520 64 297 2.0 4.0 0.00 0.00 0.00 68 1016.8
20260505234010 63 353 0.0 3.0 0.00 0.00 0.00 68 1016.8
20260505233516 63 60 1.0 4.0 0.00 0.00 0.00 69 1016.7
20260505233026 63 281 2.0 4.0 0.00 0.00 0.00 69 1016.7
20260505232512 63 14 2.0 9.0 0.00 0.00 0.00 68 1016.8
20260505232010 63 41 4.0 9.0 0.00 0.00 0.00 67 1016.8
20260505231527 64 336 2.0 4.0 0.00 0.00 0.00 67 1016.8
20260505231010 64 49 1.0 4.0 0.00 0.00 0.00 67 1016.8
20260505230514 63 11 2.0 4.0 0.00 0.00 0.00 68 1016.8
20260505230033 64 49 2.0 4.0 0.00 0.00 0.00 67 1016.8
20260505225513 64 353 1.0 4.0 0.00 0.00 0.00 68 1016.9
20260505225007 63 338 0.0 3.0 0.00 0.00 0.00 68 1016.9
20260505224537 63 294 1.0 5.0 0.00 0.00 0.00 67 1016.9
20260505224012 63 314 2.0 5.0 0.00 0.00 0.00 68 1017.0
20260505223512 63 318 2.0 4.0 0.00 0.00 0.00 68 1017.0
20260505223028 63 93 0.0 4.0 0.00 0.00 0.00 68 1017.0
20260505222510 63 342 0.0 4.0 0.00 0.00 0.00 68 1017.1
20260505222009 63 281 1.0 4.0 0.00 0.00 0.00 68 1017.1
20260505221527 63 317 1.0 5.0 0.00 0.00 0.00 68 1017.1
20260505221012 63 56 2.0 5.0 0.00 0.00 0.00 68 1017.2
20260505220510 64 62 1.0 4.0 0.00 0.00 0.00 68 1017.2
20260505220036 63 95 1.0 2.0 0.00 0.00 0.00 68 1017.3
20260505215512 63 31 1.0 6.0 0.00 0.00 0.00 70 1017.2
20260505215010 62 108 0.0 6.0 0.00 0.00 0.00 70 1017.3
20260505214547 62 69 1.0 4.0 0.00 0.00 0.00 70 1017.3
20260505214010 62 78 1.0 4.0 0.00 0.00 0.00 70 1017.4
20260505213510 62 84 2.0 4.0 0.00 0.00 0.00 69 1017.3
20260505213048 62 17 1.0 4.0 0.00 0.00 0.00 69 1017.3
20260505212510 62 79 0.0 4.0 0.00 0.00 0.00 69 1017.3
20260505212012 62 71 2.0 4.0 0.00 0.00 0.00 69 1017.5
20260505211525 62 330 2.0 3.0 0.00 0.00 0.00 68 1017.5
20260505211010 62 341 1.0 3.0 0.00 0.00 0.00 68 1017.5
20260505210508 62 41 1.0 3.0 0.00 0.00 0.00 68 1017.4
20260505210029 62 16 0.0 2.0 0.00 0.00 0.00 68 1017.5
20260505205511 62 328 1.0 2.0 0.00 0.00 0.00 69 1017.5
20260505205009 62 322 1.0 3.0 0.00 0.00 0.00 69 1017.6